| time (UTC) | temp C | wind direction | speed KPH | gust KPH | rain 1hr cm | rain 24hr cm | rain mn cm | humidity % | barometer mb |
| 20260510071632 | 16 | 265 | 6.4 | 12.9 | 0.00 | 0.00 | 0.00 | 71 | 1026.9 |
| 20260510071130 | 16 | 265 | 4.8 | 11.3 | 0.00 | 0.00 | 0.00 | 71 | 1026.8 |
| 20260510070628 | 16 | 268 | 11.3 | 12.9 | 0.00 | 0.00 | 0.00 | 70 | 1026.6 |
| 20260510070125 | 16 | 260 | 9.7 | 12.9 | 0.00 | 0.00 | 0.00 | 70 | 1026.9 |
| 20260510065620 | 16 | 270 | 9.7 | 11.3 | 0.00 | 0.00 | 0.00 | 71 | 1026.7 |
| 20260510065116 | 16 | 251 | 12.9 | 12.9 | 0.00 | 0.00 | 0.00 | 70 | 1026.8 |
| 20260510064613 | 16 | 248 | 6.4 | 12.9 | 0.00 | 0.00 | 0.00 | 70 | 1026.6 |
| 20260510064110 | 16 | 262 | 9.7 | 14.5 | 0.00 | 0.00 | 0.00 | 70 | 1026.6 |
| 20260510063607 | 16 | 244 | 9.7 | 16.1 | 0.00 | 0.00 | 0.00 | 70 | 1026.7 |
| 20260510063104 | 16 | 253 | 11.3 | 12.9 | 0.00 | 0.00 | 0.00 | 70 | 1026.7 |
| 20260510062600 | 16 | 250 | 9.7 | 12.9 | 0.00 | 0.00 | 0.00 | 68 | 1026.8 |
| 20260510062055 | 16 | 238 | 9.7 | 14.5 | 0.00 | 0.00 | 0.00 | 69 | 1026.6 |
| 20260510061551 | 16 | 245 | 8.0 | 11.3 | 0.00 | 0.00 | 0.00 | 68 | 1026.6 |
| 20260510061049 | 16 | 228 | 9.7 | 12.9 | 0.00 | 0.00 | 0.00 | 67 | 1026.5 |
| 20260510060544 | 16 | 238 | 8.0 | 11.3 | 0.00 | 0.00 | 0.00 | 68 | 1026.6 |
| 20260510060041 | 16 | 262 | 8.0 | 11.3 | 0.00 | 0.00 | 0.00 | 68 | 1026.5 |
| 20260510055537 | 16 | 252 | 8.0 | 12.9 | 0.00 | 0.00 | 0.00 | 67 | 1026.5 |
| 20260510055036 | 17 | 264 | 11.3 | 12.9 | 0.00 | 0.00 | 0.00 | 66 | 1026.6 |
| 20260510054531 | 17 | 288 | 4.8 | 11.3 | 0.00 | 0.00 | 0.00 | 67 | 1026.6 |
| 20260510054026 | 17 | 245 | 8.0 | 12.9 | 0.00 | 0.00 | 0.00 | 67 | 1026.5 |
| 20260510053521 | 17 | 267 | 8.0 | 14.5 | 0.00 | 0.00 | 0.00 | 68 | 1026.3 |
| 20260510053018 | 16 | 251 | 8.0 | 9.7 | 0.00 | 0.00 | 0.00 | 66 | 1026.7 |
| 20260510052514 | 16 | 261 | 8.0 | 11.3 | 0.00 | 0.00 | 0.00 | 68 | 1026.4 |
| 20260510052010 | 16 | 265 | 8.0 | 11.3 | 0.00 | 0.00 | 0.00 | 66 | 1026.4 |
| 20260510051506 | 16 | 249 | 9.7 | 12.9 | 0.00 | 0.00 | 0.00 | 67 | 1026.4 |
| 20260510051003 | 16 | 261 | 9.7 | 12.9 | 0.00 | 0.00 | 0.00 | 67 | 1026.4 |
| 20260510050500 | 17 | 254 | 12.9 | 14.5 | 0.00 | 0.00 | 0.00 | 66 | 1026.7 |
| 20260510045957 | 16 | 251 | 8.0 | 12.9 | 0.00 | 0.00 | 0.00 | 66 | 1026.6 |
| 20260510045454 | 16 | 240 | 8.0 | 12.9 | 0.00 | 0.00 | 0.00 | 66 | 1026.4 |
| 20260510044950 | 16 | 260 | 9.7 | 11.3 | 0.00 | 0.00 | 0.00 | 67 | 1026.4 |
| 20260510044447 | 17 | 275 | 6.4 | 11.3 | 0.00 | 0.00 | 0.00 | 65 | 1026.6 |
| 20260510043944 | 16 | 272 | 6.4 | 11.3 | 0.00 | 0.00 | 0.00 | 66 | 1026.6 |
| 20260510043440 | 16 | 249 | 8.0 | 9.7 | 0.00 | 0.00 | 0.00 | 67 | 1026.6 |
| 20260510042938 | 16 | 289 | 6.4 | 9.7 | 0.00 | 0.00 | 0.00 | 67 | 1026.6 |
| 20260510042434 | 16 | 268 | 4.8 | 8.0 | 0.00 | 0.00 | 0.00 | 67 | 1026.5 |
| 20260510041930 | 16 | 256 | 6.4 | 9.7 | 0.00 | 0.00 | 0.00 | 67 | 1026.7 |
| 20260510041427 | 16 | 263 | 9.7 | 11.3 | 0.00 | 0.00 | 0.00 | 66 | 1026.6 |
| 20260510040925 | 16 | 266 | 6.4 | 9.7 | 0.00 | 0.00 | 0.00 | 67 | 1026.5 |
| 20260510040422 | 16 | 280 | 6.4 | 8.0 | 0.00 | 0.00 | 0.00 | 66 | 1026.6 |
| 20260510035917 | 17 | 249 | 9.7 | 12.9 | 0.00 | 0.00 | 0.00 | 65 | 1026.7 |
| 20260510035414 | 17 | 267 | 8.0 | 11.3 | 0.00 | 0.00 | 0.00 | 64 | 1026.7 |
| 20260510034908 | 17 | 269 | 6.4 | 9.7 | 0.00 | 0.00 | 0.00 | 62 | 1026.7 |
| 20260510034407 | 16 | 282 | 4.8 | 8.0 | 0.00 | 0.00 | 0.00 | 64 | 1026.8 |
| 20260510033902 | 16 | 264 | 8.0 | 9.7 | 0.00 | 0.00 | 0.00 | 65 | 1026.8 |
| 20260510033359 | 17 | 275 | 4.8 | 9.7 | 0.00 | 0.00 | 0.00 | 64 | 1026.8 |
| 20260510032855 | 17 | 299 | 4.8 | 11.3 | 0.00 | 0.00 | 0.00 | 63 | 1026.9 |
| 20260510032353 | 17 | 315 | 8.0 | 9.7 | 0.00 | 0.00 | 0.00 | 64 | 1027.0 |
| 20260510031848 | 16 | 312 | 4.8 | 4.8 | 0.00 | 0.00 | 0.00 | 63 | 1027.0 |
| 20260510031344 | 16 | 279 | 4.8 | 4.8 | 0.00 | 0.00 | 0.00 | 64 | 1026.9 |
| 20260510030843 | 16 | 263 | 3.2 | 8.0 | 0.00 | 0.00 | 0.00 | 65 | 1027.1 |
| 20260510030340 | 16 | 281 | 3.2 | 4.8 | 0.00 | 0.00 | 0.00 | 66 | 1027.3 |
| 20260510025838 | 16 | 294 | 3.2 | 4.8 | 0.00 | 0.00 | 0.00 | 66 | 1027.2 |
| 20260510025335 | 16 | 293 | 3.2 | 3.2 | 0.00 | 0.00 | 0.00 | 65 | 1027.4 |
| 20260510024831 | 16 | 284 | 4.8 | 4.8 | 0.00 | 0.00 | 0.00 | 65 | 1027.3 |
| 20260510024329 | 16 | 308 | 3.2 | 3.2 | 0.00 | 0.00 | 0.00 | 64 | 1027.6 |
| 20260510023825 | 16 | 291 | 3.2 | 4.8 | 0.00 | 0.00 | 0.00 | 65 | 1027.4 |
| 20260510023321 | 16 | 284 | 4.8 | 4.8 | 0.00 | 0.00 | 0.00 | 66 | 1027.7 |
| 20260510022819 | 16 | 307 | 4.8 | 8.0 | 0.00 | 0.00 | 0.00 | 65 | 1027.8 |
| 20260510022317 | 16 | 310 | 4.8 | 8.0 | 0.00 | 0.00 | 0.00 | 66 | 1027.6 |
| 20260510021817 | 16 | 309 | 1.6 | 4.8 | 0.00 | 0.00 | 0.00 | 66 | 1027.7 |
| 20260510021315 | 16 | 308 | 3.2 | 3.2 | 0.00 | 0.00 | 0.00 | 66 | 1027.8 |
| 20260510020811 | 16 | 323 | 3.2 | 8.0 | 0.00 | 0.00 | 0.00 | 66 | 1028.0 |
| 20260510020306 | 16 | 329 | 4.8 | 8.0 | 0.00 | 0.00 | 0.00 | 66 | 1028.1 |
| 20260510015802 | 16 | 326 | 4.8 | 9.7 | 0.00 | 0.00 | 0.00 | 67 | 1028.3 |
| 20260510015258 | 16 | 341 | 6.4 | 8.0 | 0.00 | 0.00 | 0.00 | 67 | 1028.3 |
| 20260510014753 | 16 | 348 | 4.8 | 9.7 | 0.00 | 0.00 | 0.00 | 67 | 1028.3 |
| 20260510014251 | 16 | 319 | 4.8 | 9.7 | 0.00 | 0.00 | 0.00 | 67 | 1028.3 |
| 20260510013747 | 16 | 349 | 8.0 | 9.7 | 0.00 | 0.00 | 0.00 | 66 | 1028.3 |
| 20260510013242 | 16 | 6 | 3.2 | 9.7 | 0.00 | 0.00 | 0.00 | 66 | 1028.5 |
| 20260510012737 | 16 | 350 | 6.4 | 8.0 | 0.00 | 0.00 | 0.00 | 67 | 1028.5 |
| 20260510012233 | 16 | 34 | 11.3 | 12.9 | 0.00 | 0.00 | 0.00 | 67 | 1028.3 |
| 20260510011732 | 16 | 355 | 8.0 | 9.7 | 0.00 | 0.00 | 0.00 | 67 | 1028.3 |
| 20260510011228 | 16 | 359 | 4.8 | 9.7 | 0.00 | 0.00 | 0.00 | 69 | 1028.3 |
| 20260510010725 | 15 | 344 | 6.4 | 8.0 | 0.00 | 0.00 | 0.00 | 69 | 1028.2 |
| 20260510010221 | 15 | 358 | 8.0 | 11.3 | 0.00 | 0.00 | 0.00 | 70 | 1028.2 |
| 20260510005718 | 15 | 3 | 6.4 | 8.0 | 0.00 | 0.00 | 0.00 | 71 | 1028.3 |
| 20260510005215 | 15 | 5 | 3.2 | 8.0 | 0.00 | 0.00 | 0.00 | 71 | 1028.3 |
| 20260510004713 | 15 | 10 | 8.0 | 11.3 | 0.00 | 0.00 | 0.00 | 72 | 1028.4 |
| 20260510004211 | 15 | 345 | 1.6 | 4.8 | 0.00 | 0.00 | 0.00 | 73 | 1028.4 |
| 20260510003708 | 15 | 10 | 3.2 | 3.2 | 0.00 | 0.00 | 0.00 | 73 | 1028.5 |
| 20260510003158 | 15 | 18 | 3.2 | 3.2 | 0.00 | 0.00 | 0.00 | 73 | 1028.5 |
| 20260510002657 | 15 | 54 | 1.6 | 8.0 | 0.00 | 0.00 | 0.00 | 73 | 1028.4 |
| 20260510002155 | 15 | 39 | 1.6 | 4.8 | 0.00 | 0.00 | 0.00 | 73 | 1028.5 |
| 20260510001652 | 15 | 336 | 0.0 | 3.2 | 0.00 | 0.00 | 0.00 | 73 | 1028.4 |
| 20260510001150 | 15 | 32 | 1.6 | 8.0 | 0.00 | 0.00 | 0.00 | 73 | 1028.1 |
| 20260510000651 | 15 | 47 | 3.2 | 4.8 | 0.00 | 0.00 | 0.00 | 74 | 1028.6 |
| 20260510000148 | 15 | 72 | 3.2 | 8.0 | 0.00 | 0.00 | 0.00 | 74 | 1028.6 |
| 20260509235645 | 15 | 28 | 4.8 | 8.0 | 0.00 | 0.00 | 0.00 | 75 | 1028.4 |
| 20260509235141 | 15 | 0 | 1.6 | 3.2 | 0.00 | 0.00 | 0.00 | 77 | 1028.5 |
| 20260509234637 | 15 | 91 | 8.0 | 9.7 | 0.00 | 0.00 | 0.00 | 77 | 1028.3 |
| 20260509234135 | 15 | 63 | 3.2 | 8.0 | 0.00 | 0.00 | 0.00 | 78 | 1028.5 |
| 20260509233633 | 15 | 120 | 4.8 | 8.0 | 0.00 | 0.00 | 0.00 | 78 | 1028.4 |
| 20260509233130 | 15 | 111 | 6.4 | 11.3 | 0.00 | 0.00 | 0.00 | 78 | 1028.5 |
| 20260509232626 | 14 | 98 | 8.0 | 9.7 | 0.00 | 0.00 | 0.00 | 79 | 1028.5 |
| 20260509232123 | 14 | 125 | 8.0 | 9.7 | 0.00 | 0.00 | 0.00 | 80 | 1028.4 |
| 20260509231619 | 14 | 125 | 6.4 | 9.7 | 0.00 | 0.00 | 0.00 | 80 | 1028.4 |
| 20260509231117 | 13 | 123 | 4.8 | 9.7 | 0.00 | 0.00 | 0.00 | 83 | 1028.5 |
| 20260509230614 | 14 | 144 | 6.4 | 9.7 | 0.00 | 0.00 | 0.00 | 84 | 1028.1 |
| 20260509230111 | 14 | 111 | 4.8 | 9.7 | 0.00 | 0.00 | 0.00 | 84 | 1028.2 |
| 20260509225607 | 13 | 83 | 6.4 | 9.7 | 0.00 | 0.00 | 0.00 | 84 | 1028.2 |
| 20260509225102 | 13 | 111 | 4.8 | 8.0 | 0.00 | 0.00 | 0.00 | 84 | 1028.3 |
| 20260509224557 | 13 | 121 | 4.8 | 9.7 | 0.00 | 0.00 | 0.00 | 84 | 1028.1 |
| 20260509224055 | 13 | 99 | 4.8 | 9.7 | 0.00 | 0.00 | 0.00 | 84 | 1028.0 |
| 20260509223552 | 13 | 133 | 4.8 | 8.0 | 0.00 | 0.00 | 0.00 | 84 | 1027.9 |
| 20260509223050 | 13 | 99 | 6.4 | 11.3 | 0.00 | 0.00 | 0.00 | 84 | 1028.0 |
| 20260509222545 | 13 | 123 | 4.8 | 8.0 | 0.00 | 0.00 | 0.00 | 84 | 1027.8 |
| 20260509222041 | 13 | 98 | 4.8 | 9.7 | 0.00 | 0.00 | 0.00 | 85 | 1028.0 |
| 20260509221537 | 13 | 131 | 4.8 | 9.7 | 0.00 | 0.00 | 0.00 | 85 | 1027.8 |
| 20260509221033 | 13 | 126 | 4.8 | 9.7 | 0.00 | 0.00 | 0.00 | 85 | 1027.8 |
| 20260509220529 | 13 | 100 | 6.4 | 12.9 | 0.00 | 0.00 | 0.00 | 85 | 1027.9 |
| 20260509220026 | 13 | 139 | 4.8 | 8.0 | 0.00 | 0.00 | 0.00 | 85 | 1027.6 |
| 20260509215521 | 13 | 131 | 8.0 | 11.3 | 0.00 | 0.00 | 0.00 | 85 | 1027.5 |
| 20260509215019 | 13 | 137 | 8.0 | 8.0 | 0.00 | 0.00 | 0.00 | 85 | 1027.6 |
| 20260509214516 | 13 | 127 | 6.4 | 8.0 | 0.00 | 0.00 | 0.00 | 85 | 1027.7 |
| 20260509214013 | 13 | 150 | 4.8 | 8.0 | 0.00 | 0.00 | 0.00 | 85 | 1027.5 |
| 20260509213509 | 13 | 140 | 4.8 | 8.0 | 0.00 | 0.00 | 0.00 | 85 | 1027.6 |
| 20260509213006 | 13 | 113 | 4.8 | 8.0 | 0.00 | 0.00 | 0.00 | 85 | 1027.4 |
| 20260509212503 | 13 | 143 | 4.8 | 8.0 | 0.00 | 0.00 | 0.00 | 85 | 1027.1 |
| 20260509211959 | 13 | 100 | 3.2 | 8.0 | 0.00 | 0.00 | 0.00 | 85 | 1027.2 |
| 20260509211455 | 13 | 129 | 4.8 | 4.8 | 0.00 | 0.00 | 0.00 | 84 | 1027.1 |
| 20260509210952 | 13 | 87 | 3.2 | 3.2 | 0.00 | 0.00 | 0.00 | 84 | 1027.1 |
| 20260509210449 | 13 | 121 | 3.2 | 4.8 | 0.00 | 0.00 | 0.00 | 84 | 1027.1 |
| 20260509205944 | 13 | 135 | 4.8 | 4.8 | 0.00 | 0.00 | 0.00 | 83 | 1027.0 |
| 20260509205439 | 13 | 73 | 1.6 | 3.2 | 0.00 | 0.00 | 0.00 | 84 | 1027.3 |
| 20260509204935 | 13 | 146 | 1.6 | 4.8 | 0.00 | 0.00 | 0.00 | 84 | 1027.2 |
| 20260509204432 | 13 | 134 | 4.8 | 8.0 | 0.00 | 0.00 | 0.00 | 84 | 1027.1 |
| 20260509203928 | 13 | 139 | 4.8 | 4.8 | 0.00 | 0.00 | 0.00 | 84 | 1026.9 |
| 20260509203424 | 13 | 138 | 3.2 | 4.8 | 0.00 | 0.00 | 0.00 | 84 | 1026.9 |
| 20260509202922 | 13 | 137 | 4.8 | 8.0 | 0.00 | 0.00 | 0.00 | 84 | 1026.9 |
| 20260509202418 | 13 | 132 | 4.8 | 8.0 | 0.00 | 0.00 | 0.00 | 84 | 1027.0 |
| 20260509201913 | 13 | 146 | 4.8 | 4.8 | 0.00 | 0.00 | 0.00 | 84 | 1026.9 |
| 20260509201408 | 13 | 109 | 3.2 | 4.8 | 0.00 | 0.00 | 0.00 | 84 | 1027.0 |
| 20260509200906 | 13 | 160 | 3.2 | 4.8 | 0.00 | 0.00 | 0.00 | 84 | 1026.9 |
| 20260509200405 | 13 | 101 | 1.6 | 4.8 | 0.00 | 0.00 | 0.00 | 85 | 1026.8 |
| 20260509195903 | 13 | 108 | 1.6 | 3.2 | 0.00 | 0.00 | 0.00 | 85 | 1026.9 |
| 20260509195402 | 13 | 17 | 1.6 | 1.6 | 0.00 | 0.00 | 0.00 | 85 | 1026.8 |
| 20260509194857 | 13 | 143 | 3.2 | 4.8 | 0.00 | 0.00 | 0.00 | 85 | 1026.7 |
| 20260509194353 | 13 | 7 | 0.0 | 1.6 | 0.00 | 0.00 | 0.00 | 86 | 1026.6 |
| 20260509193850 | 13 | 14 | 0.0 | 1.6 | 0.00 | 0.00 | 0.00 | 86 | 1026.6 |
| 20260509193350 | 13 | 53 | 1.6 | 3.2 | 0.00 | 0.00 | 0.00 | 86 | 1026.6 |
| 20260509192846 | 13 | 46 | 0.0 | 1.6 | 0.00 | 0.00 | 0.00 | 86 | 1026.7 |
| 20260509192342 | 13 | 108 | 1.6 | 3.2 | 0.00 | 0.00 | 0.00 | 86 | 1026.5 |
| 20260509191838 | 13 | 124 | 4.8 | 4.8 | 0.00 | 0.00 | 0.00 | 87 | 1026.4 |
| 20260509191333 | 12 | 128 | 3.2 | 4.8 | 0.00 | 0.00 | 0.00 | 87 | 1026.5 |
| 20260509190830 | 12 | 147 | 4.8 | 8.0 | 0.00 | 0.00 | 0.00 | 88 | 1026.4 |
| 20260509190327 | 12 | 133 | 4.8 | 4.8 | 0.00 | 0.00 | 0.00 | 88 | 1026.3 |
| 20260509185824 | 12 | 88 | 1.6 | 3.2 | 0.00 | 0.00 | 0.00 | 89 | 1026.5 |
| 20260509185320 | 12 | 117 | 3.2 | 3.2 | 0.00 | 0.00 | 0.00 | 89 | 1026.4 |
| 20260509184818 | 12 | 49 | 1.6 | 3.2 | 0.00 | 0.00 | 0.00 | 89 | 1026.3 |
| 20260509184315 | 12 | 65 | 1.6 | 3.2 | 0.00 | 0.00 | 0.00 | 90 | 1026.3 |
| 20260509183812 | 12 | 122 | 3.2 | 3.2 | 0.00 | 0.00 | 0.00 | 90 | 1026.3 |
| 20260509183307 | 12 | 115 | 1.6 | 3.2 | 0.00 | 0.00 | 0.00 | 90 | 1026.2 |
| 20260509182803 | 12 | 114 | 1.6 | 8.0 | 0.00 | 0.00 | 0.00 | 91 | 1026.5 |
| 20260509182300 | 12 | 107 | 3.2 | 3.2 | 0.00 | 0.00 | 0.00 | 91 | 1026.1 |
| 20260509181757 | 12 | 91 | 1.6 | 3.2 | 0.00 | 0.00 | 0.00 | 91 | 1026.2 |
| 20260509181255 | 12 | 54 | 1.6 | 3.2 | 0.00 | 0.00 | 0.00 | 91 | 1026.1 |
| 20260509180752 | 12 | 1 | 1.6 | 3.2 | 0.00 | 0.00 | 0.00 | 91 | 1026.3 |
| 20260509180248 | 12 | 342 | 0.0 | 0.0 | 0.00 | 0.00 | 0.00 | 91 | 1026.2 |
| 20260509175744 | 12 | 56 | 1.6 | 3.2 | 0.00 | 0.00 | 0.00 | 91 | 1026.1 |
| 20260509175241 | 12 | 64 | 3.2 | 3.2 | 0.00 | 0.00 | 0.00 | 92 | 1026.3 |
| 20260509174737 | 12 | 54 | 3.2 | 3.2 | 0.00 | 0.00 | 0.00 | 92 | 1026.1 |
| 20260509174232 | 12 | 16 | 1.6 | 1.6 | 0.00 | 0.00 | 0.00 | 92 | 1026.0 |
| 20260509173729 | 12 | 39 | 1.6 | 3.2 | 0.00 | 0.00 | 0.00 | 92 | 1026.2 |
| 20260509173225 | 12 | 0 | 0.0 | 1.6 | 0.00 | 0.00 | 0.00 | 92 | 1026.4 |
| 20260509172721 | 12 | 2 | 1.6 | 1.6 | 0.00 | 0.00 | 0.00 | 92 | 1026.1 |
| 20260509172217 | 12 | 5 | 1.6 | 1.6 | 0.00 | 0.00 | 0.00 | 92 | 1026.2 |
| 20260509171713 | 12 | 343 | 0.0 | 0.0 | 0.00 | 0.00 | 0.00 | 92 | 1026.3 |
| 20260509171210 | 12 | 352 | 0.0 | 1.6 | 0.00 | 0.00 | 0.00 | 92 | 1026.2 |
| 20260509170706 | 12 | 1 | 1.6 | 1.6 | 0.00 | 0.00 | 0.00 | 92 | 1026.2 |
| 20260509170202 | 12 | 358 | 0.0 | 1.6 | 0.00 | 0.00 | 0.00 | 92 | 1026.3 |
| 20260509165701 | 12 | 349 | 0.0 | 1.6 | 0.00 | 0.00 | 0.00 | 92 | 1026.4 |
| 20260509165156 | 12 | 82 | 4.8 | 4.8 | 0.00 | 0.00 | 0.00 | 92 | 1026.5 |
| 20260509164652 | 12 | 84 | 3.2 | 3.2 | 0.00 | 0.00 | 0.00 | 92 | 1026.4 |
| 20260509164148 | 12 | 39 | 1.6 | 4.8 | 0.00 | 0.00 | 0.00 | 92 | 1026.4 |
| 20260509163646 | 12 | 304 | 0.0 | 1.6 | 0.00 | 0.00 | 0.00 | 92 | 1026.6 |
| 20260509163142 | 12 | 73 | 1.6 | 4.8 | 0.00 | 0.00 | 0.00 | 92 | 1026.5 |
| 20260509162639 | 12 | 75 | 3.2 | 4.8 | 0.00 | 0.00 | 0.00 | 92 | 1026.5 |
| 20260509162135 | 12 | 60 | 1.6 | 3.2 | 0.00 | 0.00 | 0.00 | 92 | 1026.6 |
| 20260509161631 | 12 | 72 | 0.0 | 4.8 | 0.00 | 0.00 | 0.00 | 92 | 1026.5 |
| 20260509161126 | 12 | 149 | 4.8 | 8.0 | 0.00 | 0.00 | 0.00 | 92 | 1026.6 |
| 20260509160622 | 12 | 113 | 6.4 | 11.3 | 0.00 | 0.00 | 0.00 | 92 | 1026.4 |
| 20260509160118 | 12 | 135 | 6.4 | 11.3 | 0.00 | 0.00 | 0.00 | 92 | 1026.6 |
| 20260509155614 | 12 | 107 | 12.9 | 12.9 | 0.00 | 0.00 | 0.00 | 92 | 1026.8 |
| 20260509155111 | 12 | 103 | 8.0 | 12.9 | 0.00 | 0.00 | 0.00 | 91 | 1026.7 |
| 20260509154606 | 12 | 129 | 9.7 | 11.3 | 0.00 | 0.00 | 0.00 | 91 | 1026.5 |
| 20260509154104 | 12 | 144 | 11.3 | 12.9 | 0.00 | 0.00 | 0.00 | 91 | 1026.7 |
| 20260509153601 | 12 | 136 | 9.7 | 11.3 | 0.00 | 0.00 | 0.00 | 91 | 1026.7 |
| 20260509153058 | 12 | 116 | 6.4 | 9.7 | 0.00 | 0.00 | 0.00 | 91 | 1026.5 |
| 20260509152554 | 12 | 138 | 8.0 | 9.7 | 0.00 | 0.00 | 0.00 | 91 | 1026.8 |
| 20260509152051 | 12 | 133 | 6.4 | 9.7 | 0.00 | 0.00 | 0.00 | 91 | 1026.7 |
| 20260509151547 | 12 | 121 | 9.7 | 9.7 | 0.00 | 0.00 | 0.00 | 91 | 1026.7 |
| 20260509151045 | 12 | 138 | 6.4 | 9.7 | 0.00 | 0.00 | 0.00 | 90 | 1026.9 |
| 20260509150543 | 12 | 143 | 6.4 | 8.0 | 0.00 | 0.00 | 0.00 | 90 | 1026.9 |
| 20260509150041 | 12 | 77 | 1.6 | 3.2 | 0.00 | 0.00 | 0.00 | 90 | 1026.8 |
| 20260509145536 | 13 | 75 | 3.2 | 3.2 | 0.00 | 0.00 | 0.00 | 90 | 1027.1 |
| 20260509145031 | 13 | 44 | 3.2 | 3.2 | 0.00 | 0.00 | 0.00 | 89 | 1026.9 |
| 20260509144528 | 13 | 81 | 3.2 | 3.2 | 0.00 | 0.00 | 0.00 | 89 | 1026.9 |
| 20260509144026 | 13 | 38 | 1.6 | 3.2 | 0.00 | 0.00 | 0.00 | 89 | 1027.0 |
| 20260509143523 | 13 | 38 | 3.2 | 3.2 | 0.00 | 0.00 | 0.00 | 89 | 1027.0 |
| 20260509143021 | 13 | 26 | 1.6 | 1.6 | 0.00 | 0.00 | 0.00 | 89 | 1027.1 |
| 20260509142516 | 13 | 40 | 3.2 | 3.2 | 0.00 | 0.00 | 0.00 | 88 | 1027.0 |
| 20260509142011 | 13 | 3 | 1.6 | 1.6 | 0.00 | 0.00 | 0.00 | 88 | 1027.2 |
| 20260509141508 | 13 | 332 | 0.0 | 0.0 | 0.00 | 0.00 | 0.00 | 88 | 1027.2 |
| 20260509141005 | 13 | 304 | 0.0 | 1.6 | 0.00 | 0.00 | 0.00 | 88 | 1027.0 |
| 20260509140501 | 13 | 303 | 0.0 | 0.0 | 0.00 | 0.00 | 0.00 | 87 | 1027.1 |
| 20260509140000 | 13 | 306 | 0.0 | 0.0 | 0.00 | 0.00 | 0.00 | 87 | 1027.0 |
| 20260509135457 | 13 | 312 | 0.0 | 0.0 | 0.00 | 0.00 | 0.00 | 87 | 1027.1 |
| 20260509134954 | 13 | 346 | 0.0 | 1.6 | 0.00 | 0.00 | 0.00 | 87 | 1027.1 |
| 20260509134451 | 13 | 36 | 1.6 | 3.2 | 0.00 | 0.00 | 0.00 | 87 | 1027.0 |
| 20260509133949 | 13 | 10 | 1.6 | 3.2 | 0.00 | 0.00 | 0.00 | 87 | 1027.0 |
| 20260509133445 | 13 | 9 | 1.6 | 1.6 | 0.00 | 0.00 | 0.00 | 87 | 1027.1 |
| 20260509132943 | 13 | 46 | 1.6 | 3.2 | 0.00 | 0.00 | 0.00 | 86 | 1027.2 |
| 20260509132441 | 13 | 257 | 1.6 | 3.2 | 0.00 | 0.00 | 0.00 | 86 | 1027.1 |
| 20260509131938 | 13 | 263 | 1.6 | 3.2 | 0.00 | 0.00 | 0.00 | 86 | 1026.8 |
| 20260509131435 | 13 | 302 | 1.6 | 1.6 | 0.00 | 0.00 | 0.00 | 86 | 1027.1 |
| 20260509130932 | 13 | 322 | 0.0 | 0.0 | 0.00 | 0.00 | 0.00 | 86 | 1027.1 |
| 20260509130427 | 13 | 319 | 0.0 | 1.6 | 0.00 | 0.00 | 0.00 | 86 | 1026.9 |
| 20260509125924 | 13 | 334 | 0.0 | 1.6 | 0.00 | 0.00 | 0.00 | 86 | 1027.3 |
| 20260509125421 | 13 | 290 | 1.6 | 1.6 | 0.00 | 0.00 | 0.00 | 86 | 1027.3 |
| 20260509124917 | 13 | 24 | 0.0 | 1.6 | 0.00 | 0.00 | 0.00 | 86 | 1027.3 |
| 20260509124414 | 13 | 77 | 3.2 | 8.0 | 0.00 | 0.00 | 0.00 | 86 | 1027.1 |
| 20260509123912 | 13 | 150 | 4.8 | 9.7 | 0.00 | 0.00 | 0.00 | 86 | 1027.2 |
| 20260509123409 | 13 | 63 | 3.2 | 4.8 | 0.00 | 0.00 | 0.00 | 86 | 1027.3 |
| 20260509122904 | 13 | 358 | 0.0 | 1.6 | 0.00 | 0.00 | 0.00 | 86 | 1027.3 |
| 20260509122401 | 13 | 17 | 0.0 | 3.2 | 0.00 | 0.00 | 0.00 | 85 | 1027.1 |
| 20260509121858 | 13 | 330 | 0.0 | 1.6 | 0.00 | 0.00 | 0.00 | 85 | 1027.2 |
| 20260509121355 | 13 | 15 | 1.6 | 3.2 | 0.00 | 0.00 | 0.00 | 85 | 1027.2 |
| 20260509120854 | 13 | 95 | 4.8 | 8.0 | 0.00 | 0.00 | 0.00 | 85 | 1026.8 |
| 20260509120351 | 13 | 128 | 4.8 | 4.8 | 0.00 | 0.00 | 0.00 | 85 | 1027.0 |
| 20260509115849 | 13 | 75 | 6.4 | 8.0 | 0.00 | 0.00 | 0.00 | 85 | 1027.1 |
| 20260509115346 | 13 | 110 | 4.8 | 12.9 | 0.00 | 0.00 | 0.00 | 85 | 1026.9 |
| 20260509114844 | 13 | 106 | 4.8 | 11.3 | 0.00 | 0.00 | 0.00 | 85 | 1027.0 |
| 20260509114342 | 13 | 137 | 3.2 | 9.7 | 0.00 | 0.00 | 0.00 | 85 | 1027.1 |
| 20260509113841 | 13 | 141 | 6.4 | 8.0 | 0.00 | 0.00 | 0.00 | 86 | 1027.0 |
| 20260509113337 | 13 | 112 | 4.8 | 4.8 | 0.00 | 0.00 | 0.00 | 86 | 1026.9 |
| 20260509112834 | 13 | 13 | 0.0 | 1.6 | 0.00 | 0.00 | 0.00 | 86 | 1027.1 |
| 20260509112331 | 13 | 109 | 4.8 | 9.7 | 0.00 | 0.00 | 0.00 | 86 | 1027.1 |
| 20260509111828 | 13 | 121 | 6.4 | 9.7 | 0.00 | 0.00 | 0.00 | 87 | 1027.1 |
| 20260509111325 | 13 | 135 | 8.0 | 9.7 | 0.00 | 0.00 | 0.00 | 87 | 1027.2 |
| 20260509110823 | 13 | 149 | 4.8 | 11.3 | 0.00 | 0.00 | 0.00 | 86 | 1027.1 |
| 20260509110319 | 13 | 94 | 8.0 | 11.3 | 0.00 | 0.00 | 0.00 | 86 | 1027.0 |
| 20260509105817 | 13 | 136 | 4.8 | 4.8 | 0.00 | 0.00 | 0.00 | 86 | 1027.1 |
| 20260509105315 | 13 | 142 | 4.8 | 9.7 | 0.00 | 0.00 | 0.00 | 86 | 1027.4 |
| 20260509104812 | 13 | 145 | 6.4 | 9.7 | 0.00 | 0.00 | 0.00 | 86 | 1027.2 |
| 20260509104308 | 13 | 153 | 6.4 | 9.7 | 0.00 | 0.00 | 0.00 | 86 | 1027.3 |
| 20260509103806 | 13 | 168 | 3.2 | 8.0 | 0.00 | 0.00 | 0.00 | 86 | 1027.2 |
| 20260509103303 | 13 | 124 | 3.2 | 4.8 | 0.00 | 0.00 | 0.00 | 86 | 1027.2 |
| 20260509102802 | 13 | 154 | 4.8 | 8.0 | 0.00 | 0.00 | 0.00 | 86 | 1027.2 |
| 20260509102259 | 13 | 160 | 3.2 | 9.7 | 0.00 | 0.00 | 0.00 | 85 | 1027.1 |
| 20260509101755 | 13 | 160 | 4.8 | 8.0 | 0.00 | 0.00 | 0.00 | 85 | 1027.1 |
| 20260509101251 | 13 | 120 | 4.8 | 8.0 | 0.00 | 0.00 | 0.00 | 85 | 1027.3 |
| 20260509100748 | 13 | 123 | 4.8 | 8.0 | 0.00 | 0.00 | 0.00 | 85 | 1027.2 |
| 20260509100246 | 13 | 145 | 4.8 | 8.0 | 0.00 | 0.00 | 0.00 | 84 | 1027.3 |
| 20260509095742 | 14 | 175 | 4.8 | 8.0 | 0.00 | 0.00 | 0.00 | 84 | 1027.3 |
| 20260509095240 | 14 | 169 | 4.8 | 4.8 | 0.00 | 0.00 | 0.00 | 84 | 1027.2 |
| 20260509094737 | 14 | 156 | 4.8 | 8.0 | 0.00 | 0.00 | 0.00 | 83 | 1027.2 |
| 20260509094233 | 14 | 152 | 6.4 | 8.0 | 0.00 | 0.00 | 0.00 | 83 | 1027.1 |
| 20260509093731 | 14 | 159 | 6.4 | 9.7 | 0.00 | 0.00 | 0.00 | 83 | 1027.2 |
| 20260509093228 | 15 | 150 | 6.4 | 11.3 | 0.00 | 0.00 | 0.00 | 82 | 1027.2 |
| 20260509092727 | 15 | 160 | 6.4 | 9.7 | 0.00 | 0.00 | 0.00 | 82 | 1027.2 |
| 20260509092224 | 15 | 143 | 8.0 | 11.3 | 0.00 | 0.00 | 0.00 | 82 | 1027.1 |
| 20260509091722 | 15 | 154 | 4.8 | 9.7 | 0.00 | 0.00 | 0.00 | 82 | 1027.0 |
| 20260509091218 | 15 | 166 | 6.4 | 11.3 | 0.00 | 0.00 | 0.00 | 82 | 1027.2 |
| 20260509090716 | 15 | 202 | 9.7 | 12.9 | 0.00 | 0.00 | 0.00 | 81 | 1027.1 |
| 20260509090213 | 15 | 183 | 8.0 | 9.7 | 0.00 | 0.00 | 0.00 | 81 | 1027.1 |
| 20260509085711 | 15 | 184 | 6.4 | 9.7 | 0.00 | 0.00 | 0.00 | 81 | 1027.1 |
| 20260509085207 | 15 | 177 | 4.8 | 9.7 | 0.00 | 0.00 | 0.00 | 81 | 1026.9 |
| 20260509084704 | 15 | 176 | 4.8 | 12.9 | 0.00 | 0.00 | 0.00 | 81 | 1027.0 |
| 20260509084201 | 15 | 150 | 3.2 | 9.7 | 0.00 | 0.00 | 0.00 | 80 | 1027.0 |
| 20260509083659 | 15 | 143 | 9.7 | 14.5 | 0.00 | 0.00 | 0.00 | 80 | 1027.1 |
| 20260509083155 | 15 | 138 | 8.0 | 9.7 | 0.00 | 0.00 | 0.00 | 80 | 1027.0 |
| 20260509082652 | 15 | 150 | 8.0 | 11.3 | 0.00 | 0.00 | 0.00 | 79 | 1027.0 |
| 20260509082148 | 15 | 154 | 8.0 | 12.9 | 0.00 | 0.00 | 0.00 | 79 | 1026.8 |
| 20260509081645 | 15 | 168 | 11.3 | 16.1 | 0.00 | 0.00 | 0.00 | 79 | 1026.9 |
| 20260509081143 | 15 | 178 | 11.3 | 12.9 | 0.00 | 0.00 | 0.00 | 78 | 1026.6 |
| 20260509080641 | 16 | 174 | 8.0 | 16.1 | 0.00 | 0.00 | 0.00 | 78 | 1026.6 |
| 20260509080138 | 16 | 149 | 8.0 | 12.9 | 0.00 | 0.00 | 0.00 | 78 | 1026.6 |
| 20260509075636 | 16 | 155 | 9.7 | 14.5 | 0.00 | 0.00 | 0.00 | 77 | 1026.7 |
| 20260509075134 | 16 | 163 | 8.0 | 12.9 | 0.00 | 0.00 | 0.00 | 76 | 1026.5 |
| 20260509074631 | 16 | 181 | 9.7 | 14.5 | 0.00 | 0.00 | 0.00 | 76 | 1026.7 |
| 20260509074127 | 16 | 146 | 12.9 | 14.5 | 0.00 | 0.00 | 0.00 | 76 | 1026.5 |
| 20260509073624 | 16 | 122 | 8.0 | 16.1 | 0.00 | 0.00 | 0.00 | 76 | 1026.6 |
| 20260509073120 | 16 | 217 | 4.8 | 11.3 | 0.00 | 0.00 | 0.00 | 77 | 1026.4 |
| 20260509072617 | 16 | 198 | 3.2 | 11.3 | 0.00 | 0.00 | 0.00 | 77 | 1026.4 |
| 20260509072114 | 16 | 200 | 6.4 | 11.3 | 0.00 | 0.00 | 0.00 | 77 | 1026.4 |